Regional Weather Roundup
Issued by NWS

Home | Current Version | Previous Version | Graphics & Text | Print | Product List | Glossary On
Versions: 1 2 3 4 5 6 7 8 9 10 11 12 13 14 15 16 17 18 19 20 21 22 23 24 25 26 27 28 29 30 31 32 33 34 35 36 37 38 39 40 41 42 43 44 45 46 47 48 49 50
000
ASUS45 KBOU 260107
RWRCO

WEATHER ROUNDUP FOR COLORADO
NATIONAL WEATHER SERVICE DENVER/BOULDER CO
700 PM MDT FRI JUL 25 2014

NOTE: "FAIR" INDICATES FEW OR NO CLOUDS BELOW 12000 FEET WITH NO
SIGNIFICANT WEATHER AND/OR OBSTRUCTIONS TO VISIBILITY.

COZ001>005-013-030-031-260200-
...NORTHWEST COLORADO...

CITY           SKY/WX    TMP DP  RH WIND       PRES   REMARKS
CRAIG          CLOUDY    72  50  45 NE12      30.16R
HAYDEN         CLOUDY    72  48  43 N22G33    30.21R
MEEKER         CLOUDY    70  53  54 E6        30.19F
MOUNT WERNER   NOT AVBL
STEAMBOAT SPGS CLOUDY    75  45  34 S5        30.23R
WALDEN         CLOUDY    59  46  63 N9        30.34F
$$

COZ006>008-011-260200-
...WEST CENTRAL VALLEYS...

CITY           SKY/WX    TMP DP  RH WIND       PRES   REMARKS
GRAND JUNCTION MOSUNNY   83  54  36 E6        30.03F
MONTROSE         N/A     81  52  36 W6        30.15F
EAGLE          CLOUDY    75  48  38 S6        30.25S
RIFLE          CLOUDY    81  48  31 SE9       30.12F
DELTA          MOSUNNY   90  50  25 S6        30.08F
NUCLA          MOSUNNY   86  43  22 NE6       30.16F
$$

COZ017>023-064>068-260200-
...SOUTHWEST COLORADO...

CITY           SKY/WX    TMP DP  RH WIND       PRES   REMARKS
DURANGO        MOSUNNY   87  39  18 NW13      30.17F
CORTEZ         SUNNY     90  42  18 W6        30.11F
PAGOSA SPRINGS MOSUNNY   83  36  18 NW7       30.27S
TELLURIDE      MOSUNNY   73  45  35 CALM      30.40F
WOLF CREEK PAS NOT AVBL
$$

COZ009-010-012-014-032>034-037-058>063-260200-
...CENTRAL COLORADO...

CITY           SKY/WX    TMP DP  RH WIND       PRES   REMARKS
ASPEN          PTSUNNY   67  53  61 SE8       30.34S
BUENA VISTA    LGT RAIN  69  46  43 NW29G37   30.33S
COPPER MTN     TSTM      52  46  82 S12       30.68S VSB 1/2
BERTHOUD PASS  TSTM      41  30  65 N9G33     30.71R
COTTONWOOD PAS TSTM      64  45  48 W15G26    30.50R
GUNNISON       PTSUNNY   70  50  49 E20G26    30.34R
KREMMLING      CLOUDY    64  52  63 CALM      30.31F
LEADVILLE      RAIN      53  49  86 E6        30.53R FOG
MONARCH PASS   CLOUDY    46  45  93 SW18      30.76F THUNDER
SALIDA         NOT AVBL
SUNLIGHT       CLOUDY    55  48  76 CALM      30.56F
WILKERSON PASS NOT AVBL
$$

COZ069>075-260200-
...SAN LUIS VALLEY/SANGRE DE CRISTO MOUNTAINS...

CITY           SKY/WX    TMP DP  RH WIND       PRES   REMARKS
ALAMOSA        MOSUNNY   77  49  37 NW16      30.26F
LA VETA PASS   PTSUNNY   68  37  32 CALM      30.51R
SAGUACHE       PTSUNNY   68  48  49 NW23G30   30.35R
$$

COZ035-036-038>040-260200-
...NORTHERN COLORADO FRONT RANGE...

CITY           SKY/WX    TMP DP  RH WIND       PRES   REMARKS
DENVER INTL AP PTSUNNY   77  54  44 S13       30.10R
DMNS CITY PARK   N/A     77  55  46 SW5G12    30.13R
AURORA         PTSUNNY   73  61  66 W5        30.15R
FRONT RANGE AP PTSUNNY   77  57  50 S10       30.11S
ERIE MUNI ARPT LGT RAIN  79  54  41 S7        30.09R
BOULDER MUN AP CLOUDY    79  52  38 SW7       30.10R
CENTENNIAL     TSTM      77  51  40 CALM      30.16R
BROOMFIELD     PTSUNNY   75  59  57 W8        30.15
FORT COLLINS   CLOUDY    79  57  47 S10       30.06R
LONGMONT       CLOUDY    82  52  35 S10       30.09S
$$

COZ041-046-047-076>085-087-088-260200-
...PIKES PEAK/PALMER DIVIDE AND SOUTHERN FOOTHILLS...

CITY           SKY/WX    TMP DP  RH WIND       PRES   REMARKS
COLO. SPRINGS  PTSUNNY   77  52  41 SE14      30.16F
A. F. ACADEMY  PTSUNNY   76  52  43 SE2       30.19F
ELLICOTT       PTSUNNY   76  50  40 SW13      30.17R
FALCON         PTSUNNY   75  48  38 S6        30.23F
FORT CARSON    CLOUDY    76  56  49 SE3       30.14F
LIMON          CLOUDY    78  53  41 N16G22    30.10F
MONUMENT HILL  PTSUNNY   68  55  64 SE5       30.23S
TRINIDAD       TSTM      78  54  43 NW26G41   30.12R
$$

COZ042>045-048>051-090-091-260200-
...NORTHEAST COLORADO...

CITY           SKY/WX    TMP DP  RH WIND       PRES   REMARKS
GREELEY ARPT   PTSUNNY   77  59  53 S9        30.04S
AKRON          CLOUDY    89  46  22 VRB6      30.03R
BURLINGTON     CLOUDY    89  59  36 E8        29.97S
WRAY             N/A     93  53  25 E9        29.93F
STERLING       CLOUDY    88  54  31 W21G30    29.99R
HOLYOKE        CLOUDY    81  70  69 S3        29.94S
FORT MORGAN    CLOUDY    82  50  33 E7        30.02F
$$

COZ086-089-092>099-260200-
...SOUTHEAST COLORADO...

CITY           SKY/WX    TMP DP  RH WIND       PRES   REMARKS
PUEBLO         CLOUDY    78  60  53 N14       30.04F
LA JUNTA       PTSUNNY   86  52  30 NW31G45   29.97R
LAMAR          PTSUNNY   98  50  19 E9        29.85R
SPRINGFIELD      N/A     93  45  19 S6        29.91S
$$



USA.gov is the U.S. government's official web portal to all federal, state and local government web resources and services.